Dewpoint
72 72 73 74 74 75 75 76 77 77 77 77 77 77 77 77 76 76 76 76 76 76 76 76 76 76 76 76 76 76 76 75 75 75 75 76 76 76 75 76 75 75 75 75 75 75 75 75 75 75 74 74 74 74 74 74 74 74 75 75 74 74 74 73 74 74 74 74 74 74 75 74 74 75 75 75 74 75 75 75 76 74 75 75 74
72 73 73 74 74 75 75 76 77 77 77 77 77 77 77 76 76 76 76 76 76 76 76 76 76 75 75 75 75 75 75 75 75 76 76 76 76 76 76 75 75 75 75 75 75 75 75 74 74 74 74 74 74 74 74 75 76 76 75 75 74 74 73 73 74 74 73 73 73 73 73 74 75 74 75 74 74 74 74 75 76 75 74 74 74
73 73 74 74 75 76 76 76 77 77 77 76 77 77 76 76 76 76 76 76 76 76 76 75 76 76 76 75 76 75 75 76 76 76 76 76 75 75 75 75 75 75 75 75 75 75 74 74 74 74 74 73 74 74 74 75 76 76 75 74 74 74 73 73 73 73 73 73 73 74 74 74 75 74 74 74 74 74 74 74 76 76 73 74 73
73 74 74 75 75 76 76 76 76 77 76 76 76 76 76 76 76 76 76 76 76 75 75 75 75 75 76 75 75 76 76 75 76 76 75 75 76 75 75 75 75 75 74 74 74 74 74 74 74 74 73 74 74 74 75 74 74 74 75 75 74 74 74 73 73 73 73 75 75 75 76 74 74 74 74 74 74 74 75 74 74 75 74 74 73
73 74 74 75 75 76 77 76 77 76 76 76 76 76 77 77 77 76 76 76 76 76 75 76 76 76 76 76 75 75 76 76 76 75 75 75 76 76 75 74 74 75 75 74 74 74 73 73 74 74 74 74 74 74 75 75 75 75 75 75 75 74 74 74 73 73 74 75 75 75 73 73 74 74 74 74 74 74 74 74 74 74 74 74 73
73 74 74 74 74 76 77 77 76 76 76 76 76 76 76 76 77 76 76 76 76 76 75 75 76 76 75 75 75 75 75 76 75 75 75 75 75 75 75 74 74 74 75 74 74 73 73 74 74 74 74 73 75 75 74 74 75 75 74 75 74 74 74 74 73 74 74 75 75 73 73 73 73 73 73 73 74 74 74 74 74 73 73 73 74
73 74 74 74 75 75 76 77 76 76 76 77 77 77 77 77 77 76 76 75 75 76 76 75 75 75 75 75 75 75 76 75 75 75 75 75 75 74 74 74 74 74 74 74 74 74 73 73 74 74 73 74 74 73 73 74 73 74 74 74 74 73 73 73 74 74 75 74 72 72 72 73 73 73 73 74 74 74 74 74 73 73 73 73 73
74 74 74 74 75 75 77 77 77 77 76 77 77 77 76 77 76 76 76 76 75 75 76 75 75 75 75 74 75 75 75 75 75 76 76 75 75 74 74 75 74 75 74 74 74 74 74 74 73 73 72 72 72 73 73 74 74 74 74 74 73 73 73 73 74 75 75 72 72 72 72 73 72 72 73 74 74 74 74 74 73 73 73 73 74
73 73 74 74 75 76 77 77 77 77 76 77 77 76 76 76 76 76 76 76 76 75 75 75 75 75 75 74 74 75 75 75 76 76 75 75 75 74 74 74 74 74 74 74 74 74 74 74 73 73 73 73 73 73 74 74 74 74 74 74 73 73 73 74 75 75 73 72 72 72 72 72 71 71 73 74 73 74 74 74 74 73 73 73 73
73 73 74 74 75 77 77 77 77 77 77 77 76 76 76 76 76 76 76 75 75 75 75 75 75 75 75 75 75 75 76 75 75 75 74 74 75 74 74 74 75 74 74 74 74 74 75 74 73 73 73 73 73 74 74 74 74 74 74 73 73 74 74 74 75 75 72 72 72 72 73 75 72 71 72 73 73 73 73 73 73 73 73 73 73
73 73 74 74 75 77 76 77 77 77 77 77 76 76 76 76 76 76 76 75 75 75 75 75 75 75 75 75 75 75 75 75 75 75 74 74 74 74 74 74 74 74 74 74 74 74 74 74 73 73 73 73 73 74 74 74 74 74 74 73 73 73 74 75 75 73 73 72 72 73 74 75 72 72 74 74 73 74 74 73 73 73 72 72 72
73 74 74 74 76 77 76 77 76 76 76 76 76 76 76 76 76 75 75 75 75 75 75 75 75 74 74 74 74 75 75 75 75 75 75 74 74 74 74 75 74 74 74 74 74 74 74 74 73 73 73 74 74 74 74 73 74 74 74 74 73 73 75 75 73 73 72 73 73 73 73 72 73 72 74 74 74 74 73 73 73 73 73 73 73
73 74 74 75 76 77 76 76 76 76 76 76 76 77 76 76 75 75 75 75 75 74 74 74 74 74 74 73 74 75 74 74 74 74 75 75 75 74 75 74 74 74 74 74 74 74 74 74 74 73 74 74 74 74 73 73 74 74 73 73 73 73 75 75 73 73 73 73 73 73 73 72 73 73 74 74 74 74 73 73 73 73 73 73 73
73 74 74 75 75 76 77 76 76 76 76 76 77 76 76 76 75 75 75 75 75 75 74 74 74 74 75 75 75 75 75 75 75 75 74 74 75 74 75 75 73 74 74 74 74 74 74 74 74 74 74 74 75 74 74 74 74 74 73 72 73 74 75 75 75 73 73 73 74 73 73 74 73 74 73 74 74 74 74 73 73 73 73 73 73
73 74 75 75 75 75 76 76 76 76 76 77 77 76 75 75 75 75 75 75 75 75 75 74 75 75 75 75 75 75 75 75 75 75 74 74 74 74 74 74 74 74 74 75 74 75 75 74 74 74 74 74 74 73 73 74 74 73 73 73 73 74 76 74 73 73 74 74 73 73 72 72 74 74 73 73 73 74 74 74 74 74 74 73 73
74 74 75 75 75 75 75 76 76 76 77 77 76 76 75 75 75 74 75 75 75 75 75 75 74 75 75 75 75 75 75 75 75 74 74 73 74 73 73 73 73 74 74 74 74 74 74 75 74 74 73 73 73 74 74 74 75 74 73 73 73 75 76 75 73 73 73 73 73 74 73 73 74 74 73 73 72 73 73 73 74 73 73 73 73
74 74 75 75 74 75 75 75 76 76 77 77 76 75 75 75 75 75 75 75 75 75 75 75 75 73 74 75 75 75 74 73 73 73 73 73 74 74 74 74 74 75 75 74 75 75 75 75 74 74 73 74 74 74 74 75 75 74 73 73 73 75 75 75 73 72 73 74 74 73 73 73 75 74 73 73 73 72 73 73 73 73 73 73 73
74 74 74 74 74 74 75 75 75 75 76 76 76 75 75 75 75 75 75 75 75 75 75 75 74 74 74 74 74 74 75 75 75 75 74 75 75 75 75 75 74 74 74 74 74 74 75 74 73 74 74 74 73 74 74 74 75 74 74 74 73 74 75 75 72 73 73 75 73 74 73 74 75 73 73 73 73 74 74 73 73 73 73 73 73
74 74 74 74 74 74 75 75 75 75 76 75 75 74 75 75 75 75 75 75 75 75 75 75 75 74 75 75 75 75 75 75 75 75 75 75 75 75 75 75 75 75 75 74 75 75 74 73 74 74 74 73 74 75 75 75 75 75 74 73 73 74 75 74 73 73 74 73 73 72 72 75 75 73 73 73 73 74 73 73 73 73 72 72 73
74 74 74 74 74 74 75 75 75 75 75 75 75 75 75 75 75 75 75 75 75 76 75 75 75 74 75 75 75 74 74 74 75 75 75 75 75 74 74 75 75 74 74 74 75 75 75 74 74 74 74 74 74 75 75 75 74 74 74 73 73 74 73 72 73 73 73 73 73 72 75 75 74 73 74 74 74 74 73 73 73 74 73 73 73
73 74 73 74 74 74 74 74 75 75 75 75 75 75 75 75 75 75 75 75 76 76 75 75 75 75 75 75 75 75 75 74 75 75 75 76 74 74 74 74 75 75 74 74 74 75 75 75 75 75 75 74 75 75 75 75 75 74 74 74 74 73 72 72 72 73 73 74 75 73 75 75 74 74 73 74 74 74 74 74 74 74 74 74 74
73 73 74 74 74 74 74 75 75 75 75 76 75 75 75 75 75 74 75 75 75 75 75 75 75 74 75 76 75 75 74 73 75 75 76 75 74 74 74 73 73 74 74 75 75 75 75 75 75 75 75 74 74 74 74 75 75 74 73 73 73 71 72 72 72 73 73 73 74 74 75 74 74 74 73 73 73 74 74 74 74 74 73 74 74
72 73 73 74 74 74 75 75 75 75 75 75 75 75 75 75 75 75 75 76 76 76 75 76 74 74 74 74 75 75 73 74 75 76 76 76 76 74 73 73 73 72 74 73 74 75 75 75 75 75 74 75 75 72 73 73 74 73 76 73 71 71 71 72 72 73 73 73 72 75 74 74 74 73 73 73 73 73 73 73 73 73 73 74 74
71 72 73 74 74 74 74 74 75 75 75 75 75 75 75 75 75 75 75 75 75 76 75 74 74 74 74 73 74 75 74 73 77 75 75 76 75 74 73 73 73 72 73 76 74 75 74 74 75 75 77 77 73 73 73 72 72 73 73 73 71 71 71 72 72 72 72 74 73 75 74 74 74 73 73 73 73 73 73 73 73 73 73 73 73
71 72 73 73 74 74 74 74 75 75 75 75 75 75 75 75 75 75 75 75 75 75 74 74 74 74 74 74 75 75 74 73 74 74 74 74 74 74 75 74 74 75 78 73 75 75 75 74 74 76 73 73 73 72 72 72 74 73 73 73 73 71 71 72 72 71 72 73 74 75 74 74 74 73 73 73 73 73 73 73 73 73 73 73 73
71 71 72 73 73 74 74 74 75 75 75 75 75 76 75 75 74 74 74 75 75 74 74 74 74 74 74 74 75 75 74 73 74 73 73 73 73 74 73 74 73 75 76 73 73 73 73 73 73 73 73 73 72 72 72 73 72 72 72 73 73 72 71 71 72 72 72 72 74 75 75 74 74 74 74 73 73 73 73 73 73 73 73 72 73
71 71 72 72 73 73 73 74 74 74 74 75 75 75 75 75 74 74 74 74 74 74 74 74 74 73 74 75 75 74 74 73 74 73 72 73 73 73 73 74 73 73 75 73 73 73 73 73 73 72 73 73 72 72 72 73 71 71 72 72 72 72 71 71 71 72 72 73 74 75 75 74 74 74 74 74 74 73 73 73 73 73 73 72 73
70 70 71 72 73 72 73 73 73 74 74 74 75 75 74 74 74 76 75 75 75 74 74 74 74 74 73 75 76 74 74 73 74 73 72 72 73 73 73 74 74 73 75 73 73 72 73 73 73 72 73 73 72 72 72 73 72 70 71 72 72 71 71 71 71 71 72 73 74 75 75 75 74 74 74 74 74 74 73 73 73 73 73 72 72
69 70 71 71 72 72 72 73 73 73 73 74 74 75 74 74 74 74 74 76 74 74 74 74 74 74 73 75 76 73 73 73 73 73 73 72 72 73 74 73 74 73 74 73 73 72 72 72 73 73 72 72 72 72 72 72 72 72 70 71 72 71 71 71 71 71 72 72 73 75 75 75 74 74 74 74 74 74 74 74 73 72 72 72 72
69 69 70 71 71 71 71 72 72 73 73 73 74 74 74 73 73 74 74 75 74 74 73 73 73 74 73 75 75 73 73 72 73 73 74 72 73 73 74 73 74 74 73 73 73 72 72 73 73 73 71 72 72 72 71 71 71 70 70 70 71 71 71 71 71 71 72 73 73 75 75 75 75 75 74 74 74 74 74 73 73 73 72 72 72
69 69 70 70 71 70 71 71 72 73 72 72 73 73 73 73 73 73 73 74 74 74 73 73 73 73 73 74 75 74 73 72 72 73 73 73 73 73 74 73 73 74 74 73 73 73 73 73 73 72 71 71 72 73 73 72 70 70 70 69 70 71 71 71 71 71 72 73 73 74 75 75 75 75 74 74 74 74 74 74 73 73 73 72 72
68 68 69 70 70 70 70 70 71 72 72 72 72 72 72 72 72 72 72 72 74 73 72 72 74 73 73 74 74 73 75 72 72 73 73 73 73 73 73 73 73 73 74 73 73 74 74 74 74 74 74 73 72 71 73 71 70 70 69 69 70 70 71 71 71 71 72 73 73 73 73 75 75 75 74 74 74 74 74 73 73 73 73 73 73
68 68 69 70 69 69 69 70 71 72 71 71 71 71 71 72 72 71 72 72 72 72 71 71 72 73 73 74 74 73 75 72 72 73 76 72 72 72 73 74 73 73 74 74 74 74 74 74 73 75 73 71 71 71 73 71 70 70 69 68 69 70 71 71 71 71 72 73 73 73 73 74 74 75 75 74 75 73 73 73 74 74 73 74 73
67 68 69 69 69 69 69 69 70 71 71 70 70 70 71 71 71 71 72 71 71 72 72 71 72 73 73 73 74 74 75 73 72 72 73 72 72 72 72 73 73 73 73 74 73 73 73 73 72 72 75 73 70 71 71 70 70 70 68 67 69 70 71 71 71 71 72 73 73 73 73 73 73 73 75 75 75 74 74 73 73 73 74 73 73
67 68 68 69 69 69 69 68 71 70 71 70 70 69 70 70 70 70 70 71 71 71 71 71 71 72 73 73 74 74 76 74 72 72 73 72 72 72 72 72 73 73 73 74 73 73 72 73 73 71 71 71 71 73 71 69 69 70 69 67 68 70 71 71 71 71 72 72 73 73 73 73 73 73 74 73 75 75 75 74 74 73 74 74 73
67 67 68 69 69 69 69 68 70 70 70 70 69 68 69 69 70 72 70 70 71 71 71 71 71 72 73 73 74 74 75 74 73 73 72 72 72 72 72 73 73 73 73 74 73 73 72 72 73 71 70 71 73 70 70 69 70 70 70 67 68 71 70 70 71 71 72 73 73 73 73 73 73 73 75 73 73 75 75 74 74 74 74 74 73
67 67 68 68 69 69 70 68 69 70 70 70 69 68 68 68 69 70 70 70 70 70 71 71 71 72 72 72 73 74 74 74 74 73 73 72 73 72 72 73 74 74 73 74 73 73 73 73 73 74 71 70 70 70 69 70 69 70 69 66 68 70 69 70 71 71 73 72 72 73 73 73 73 76 74 73 72 73 75 75 74 74 74 74 74
67 67 68 68 68 69 69 68 69 69 70 70 69 69 68 67 68 69 71 70 70 70 71 71 72 72 72 72 73 74 74 74 74 74 73 73 73 73 72 74 74 73 73 74 73 73 72 72 72 73 73 70 69 68 68 68 70 69 67 67 68 69 69 69 71 73 72 72 72 72 73 73 74 74 74 73 73 72 73 74 74 74 74 74 74
66 67 67 68 68 69 69 69 69 69 69 69 70 69 69 68 68 69 70 71 70 69 71 72 72 72 72 72 73 73 74 74 74 74 73 74 73 73 73 74 75 73 74 74 73 73 73 72 71 71 74 71 70 69 68 69 68 68 65 66 67 68 69 69 71 71 71 71 72 73 73 72 73 73 72 72 72 72 72 72 72 72 73 74 74
66 67 68 68 68 68 69 69 69 69 69 69 69 69 69 68 68 69 70 71 70 70 70 72 72 72 73 73 73 73 73 74 74 73 73 74 73 74 73 75 74 74 74 73 72 72 72 72 71 71 72 73 74 71 70 70 67 68 68 65 66 67 68 70 70 69 70 70 71 72 72 72 72 72 72 72 72 72 72 72 73 72 72 74 74
66 67 67 67 67 68 69 68 69 69 69 69 69 68 68 68 68 68 69 70 70 69 70 71 72 72 73 73 73 73 73 73 75 73 73 75 73 74 74 75 74 74 74 73 72 72 72 72 72 73 72 71 70 71 71 66 64 62 62 63 65 66 70 70 68 68 69 70 70 71 71 72 71 71 71 71 71 71 71 71 72 71 71 71 73
66 67 67 67 67 67 68 68 69 69 69 69 69 69 68 68 67 67 68 69 70 69 69 70 72 73 73 73 73 73 73 73 75 74 73 74 73 74 74 75 74 74 74 74 72 74 73 72 72 72 73 71 69 71 71 65 63 61 59 60 61 62 67 67 67 67 68 68 69 70 70 71 71 71 71 70 70 70 70 71 71 71 71 71 71
66 67 67 67 67 67 68 68 69 68 68 69 69 68 68 69 68 68 69 69 70 70 69 70 72 72 73 73 74 73 73 73 74 75 73 74 73 74 74 74 75 74 74 73 73 73 73 73 72 71 71 71 71 72 71 65 63 65 63 59 56 58 62 62 63 65 65 66 68 69 70 71 71 70 70 70 69 70 70 71 70 70 70 71 71
67 66 67 67 67 68 67 68 69 68 68 69 70 69 69 69 69 69 70 70 70 71 70 71 70 71 72 73 74 73 73 73 73 74 73 73 73 73 74 74 75 75 74 74 73 72 72 72 72 72 70 69 69 69 72 68 67 62 58 59 57 56 54 56 59 63 64 65 66 67 69 70 71 70 70 70 70 69 70 70 70 70 70 70 71
67 67 67 67 67 67 67 68 69 68 68 69 70 70 70 70 70 70 71 70 70 70 70 70 70 70 71 72 73 74 73 73 73 74 74 73 73 73 73 74 74 74 74 74 73 73 73 72 73 72 71 69 68 69 70 70 67 65 63 58 55 53 54 56 57 57 63 63 64 66 68 70 70 70 70 69 69 69 70 70 70 70 70 71 70
66 67 67 67 67 67 68 68 69 69 68 68 69 70 70 69 69 69 69 69 68 69 68 68 69 69 70 71 73 74 74 73 73 74 74 73 73 73 73 74 74 75 74 74 74 73 73 72 73 73 72 70 69 68 67 71 69 70 65 61 58 55 55 57 56 54 61 65 63 65 66 69 69 70 69 69 69 69 71 70 70 71 71 71 71
66 67 67 67 68 68 68 68 68 69 69 68 69 70 69 69 69 68 68 68 68 68 69 69 69 70 71 72 72 74 74 73 73 74 74 74 73 73 74 74 74 75 75 73 73 74 74 74 74 73 72 73 69 67 67 67 67 67 69 67 67 66 60 55 53 56 55 58 60 61 63 65 67 68 68 68 69 69 70 71 71 71 71 71 71
65 66 67 67 68 68 68 68 69 69 69 69 69 70 69 69 69 68 68 68 68 68 69 69 69 70 72 72 72 73 74 74 73 74 74 74 73 73 74 74 74 75 75 74 74 74 74 74 75 74 73 72 70 69 68 66 66 65 67 65 66 69 63 61 58 56 57 56 56 57 59 61 63 66 67 67 67 68 69 70 70 70 71 71 71
65 66 66 67 68 68 68 69 69 69 69 69 69 70 70 69 69 68 68 69 68 69 69 69 69 71 71 72 72 73 74 74 74 74 74 74 74 73 73 74 74 74 76 75 74 74 74 74 74 74 73 72 71 70 68 67 66 66 63 63 63 63 62 64 65 62 59 55 55 56 57 59 61 62 63 65 66 67 69 69 70 71 71 71 71
65 66 66 67 67 67 68 68 69 69 69 69 70 69 70 70 69 68 68 68 69 69 69 68 69 70 70 72 72 73 73 73 73 74 73 74 74 74 73 74 74 75 76 75 75 75 74 74 74 74 73 72 71 70 69 68 66 66 64 63 61 61 60 59 60 59 58 58 56 56 57 57 57 59 62 62 64 66 67 68 69 70 70 71 71
64 65 66 66 67 67 67 68 69 69 70 69 70 69 70 70 69 69 68 68 68 68 68 68 68 69 69 70 72 72 73 73 73 73 73 73 73 74 74 74 75 75 76 75 75 75 75 75 74 73 73 73 72 70 71 69 67 66 64 63 62 61 60 59 59 60 58 57 55 56 56 58 57 57 59 61 64 65 66 67 67 68 69 70 70